This is the latest recevied weather packets stored in our database for station/object ALANSN-2. If no packets are shown the sender has not sent any weather packets the latest 10 day(s).
| Time | Temp. | Humidity | Pressure | Rain* | Wind** | Luminosity | Snow |
|---|---|---|---|---|---|---|---|
| 1777978802 | 3.33° C | 87% | 1010 hPa | 0 mm | - | 17 W/m² | - |
| 1777977001 | 3.33° C | 83% | 1009.4 hPa | 0 mm | - | 3 W/m² | - |
| 1777976702 | 3.89° C | 82% | 1009.4 hPa | 0 mm | - | 1 W/m² | - |
| 1777976401 | 4.44° C | 79% | 1009.1 hPa | 0 mm | - | 0 W/m² | - |
| 1777975802 | 4.44° C | 78% | 1009.1 hPa | 0 mm | - | 0 W/m² | - |
| 1777975502 | 4.44° C | 77% | 1009 hPa | 0 mm | - | 0 W/m² | - |
| 1777975201 | 5° C | 76% | 1009.2 hPa | 0 mm | - | 0 W/m² | - |
| 1777974902 | 5° C | 75% | 1008.8 hPa | 0 mm | - | 0 W/m² | - |
| 1777973702 | 5.56° C | 73% | 1008.6 hPa | 0 mm | - | 0 W/m² | - |
| 1777973401 | 5.56° C | 73% | 1008.3 hPa | 0 mm | - | 0 W/m² | - |
| 1777972501 | 6.11° C | 71% | 1008.3 hPa | 0 mm | - | 0 W/m² | - |
| 1777972202 | 6.67° C | 71% | 1008.2 hPa | 0 mm | - | 0 W/m² | - |
| 1777971901 | 6.67° C | 71% | 1008.3 hPa | 0 mm | - | 0 W/m² | - |
| 1777970702 | 6.67° C | 71% | 1008.2 hPa | 0 mm | - | 0 W/m² | - |
| 1777970102 | 6.67° C | 71% | 1008.2 hPa | 0 mm | - | 0 W/m² | - |
| 1777969801 | 6.67° C | 72% | 1007.9 hPa | 0 mm | - | 0 W/m² | - |
| 1777969502 | 6.67° C | 71% | 1008 hPa | 0 mm | - | 0 W/m² | - |
| 1777969202 | 6.67° C | 70% | 1007.9 hPa | 0 mm | - | 0 W/m² | - |
| 1777968302 | 7.22° C | 69% | 1007.9 hPa | 0 mm | - | 0 W/m² | - |
| 1777968001 | 7.22° C | 68% | 1007.8 hPa | 0 mm | - | 0 W/m² | - |
| 1777967702 | 7.22° C | 69% | 1007.8 hPa | 0 mm | - | 0 W/m² | - |
| 1777967401 | 7.22° C | 69% | 1007.8 hPa | 0 mm | - | 0 W/m² | - |
| 1777966802 | 7.78° C | 67% | 1007.7 hPa | 0 mm | - | 0 W/m² | - |
| 1777965602 | 7.78° C | 68% | 1007.5 hPa | 0 mm | - | 0 W/m² | - |
| 1777965001 | 7.78° C | 71% | 1007.7 hPa | 0 mm | - | 0 W/m² | - |
* Rain latest hour (hover to see other rain measurements)
** Current wind speed in m/s (hover to see current wind gust speed)